Location: Abraham Lincoln Continuation High School
(33.9711°N, 117.3662°W)
Time: 13:48:04
(UTC+00:00)

Okean 2 Rocket - Pass Details

Date: 21 September 2020
Orbit: 616 x 642 km, 82.5° (Epoch: 29 October)

Event Time Altitude Azimuth Distance (km) Brightness Sun altitude
Rises 02:46:35 0° 179° (S) 2,930 6.4 -12.9°
Reaches altitude 10° 02:48:49 10° 176° (S) 2,023 5.6 -13.4°
Maximum altitude 02:53:16 67° 95° (E) 692 3.0 -14.3°
Drops below altitude 10° 02:57:44 10° 12° (NNE) 2,025 5.7 -15.2°
Sets 02:59:59 0° 10° (N) 2,933 6.6 -15.6°
